Time,TemperatureF,DewpointF,PressureIn,WindDirection,WindDirectionDegrees,WindSpeedMPH,WindSpeedGustMPH,Humidity,HourlyPrecipIn,Conditions,Clouds,dailyrainin,SoftwareType,DateUTC
2013-06-28 00:02:00,74.0,72.0,29.50,SSW,202,3.0,-999.0,93,-99.99,,,-99.99,,2013-06-28 04:02:00,
2013-06-28 00:12:00,74.0,72.0,29.50,SSW,202,3.0,-999.0,93,-99.99,,,-99.99,,2013-06-28 04:12:00,
2013-06-28 00:22:00,74.0,72.0,29.49,SW,222,3.0,-999.0,93,-99.99,,,-99.99,,2013-06-28 04:22:00,
2013-06-28 00:43:00,73.0,71.0,29.49,SW,232,3.0,-999.0,93,-99.99,,,-99.99,,2013-06-28 04:43:00,
2013-06-28 00:53:00,73.0,71.0,29.49,WSW,237,3.0,-999.0,93,-99.99,,,-99.99,,2013-06-28 04:53:00,
2013-06-28 01:01:00,73.0,71.0,29.48,South,185,2.0,-999.0,93,-99.99,,,-99.99,,2013-06-28 05:01:00,
2013-06-28 01:11:00,73.0,71.0,29.48,South,185,2.0,-999.0,93,-99.99,,,-99.99,,2013-06-28 05:11:00,
2013-06-28 01:22:00,73.0,71.0,29.49,South,177,2.0,-999.0,92,-99.99,,,-99.99,,2013-06-28 05:22:00,
2013-06-28 01:33:00,73.0,71.0,29.49,South,177,2.0,-999.0,92,-99.99,,,-99.99,,2013-06-28 05:33:00,
2013-06-28 01:43:00,73.0,71.0,29.48,SW,224,2.0,-999.0,92,-99.99,,,-99.99,,2013-06-28 05:43:00,
2013-06-28 01:53:00,73.0,71.0,29.47,SSW,194,2.0,-999.0,93,-99.99,,,-99.99,,2013-06-28 05:53:00,
2013-06-28 02:02:00,74.0,72.0,29.48,South,180,3.0,-999.0,92,-99.99,,,-99.99,,2013-06-28 06:02:00,
2013-06-28 02:22:00,74.0,72.0,29.47,SW,215,2.0,-999.0,93,-99.99,,,-99.99,,2013-06-28 06:22:00,
2013-06-28 02:33:00,74.0,72.0,29.47,WSW,238,2.0,-999.0,93,-99.99,,,-99.99,,2013-06-28 06:33:00,
2013-06-28 02:43:00,74.0,72.0,29.47,WSW,238,2.0,-999.0,93,-99.99,,,-99.99,,2013-06-28 06:43:00,
2013-06-28 02:52:00,74.0,72.0,29.47,SSE,161,2.0,-999.0,93,-99.99,,,-99.99,,2013-06-28 06:52:00,
2013-06-28 03:01:00,73.0,71.0,29.47,South,173,2.0,-999.0,93,-99.99,,,-99.99,,2013-06-28 07:01:00,
2013-06-28 03:22:00,73.0,71.0,29.46,SW,231,1.0,-999.0,93,-99.99,,,-99.99,,2013-06-28 07:22:00,
2013-06-28 03:33:00,73.0,71.0,29.46,South,173,1.0,-999.0,93,-99.99,,,-99.99,,2013-06-28 07:33:00,
2013-06-28 03:43:00,73.0,71.0,29.46,South,173,1.0,-999.0,93,-99.99,,,-99.99,,2013-06-28 07:43:00,
2013-06-28 03:52:00,73.0,71.0,29.46,SSW,196,1.0,-999.0,93,-99.99,,,-99.99,,2013-06-28 07:52:00,
2013-06-28 04:02:00,73.0,71.0,29.46,SSW,208,1.0,-999.0,93,-99.99,,,-99.99,,2013-06-28 08:02:00,
2013-06-28 04:11:00,73.0,71.0,29.46,SSW,208,1.0,-999.0,93,-99.99,,,-99.99,,2013-06-28 08:11:00,
2013-06-28 04:22:00,73.0,71.0,29.45,SSW,196,1.0,-999.0,93,-99.99,,,-99.99,,2013-06-28 08:22:00,
2013-06-28 04:43:00,73.0,71.0,29.44,SSW,208,1.0,-999.0,93,-99.99,,,-99.99,,2013-06-28 08:43:00,
2013-06-28 04:52:00,73.0,71.0,29.44,WSW,240,1.0,-999.0,93,-99.99,,,-99.99,,2013-06-28 08:52:00,
2013-06-28 05:02:00,73.0,71.0,29.44,WSW,240,0.0,-999.0,94,-99.99,,,-99.99,,2013-06-28 09:02:00,
2013-06-28 05:11:00,73.0,71.0,29.44,WSW,240,0.0,-999.0,94,-99.99,,,-99.99,,2013-06-28 09:11:00,
2013-06-28 05:22:00,72.0,70.0,29.44,SSW,211,2.0,-999.0,94,-99.99,,,-99.99,,2013-06-28 09:22:00,
2013-06-28 05:33:00,72.0,70.0,29.45,SSW,211,2.0,-999.0,94,-99.99,,,-99.99,,2013-06-28 09:33:00,
2013-06-28 05:42:00,72.0,70.0,29.45,SSW,211,2.0,-999.0,94,-99.99,,,-99.99,,2013-06-28 09:42:00,
2013-06-28 05:52:00,72.0,70.0,29.45,SSW,211,2.0,-999.0,94,-99.99,,,-99.99,,2013-06-28 09:52:00,
2013-06-28 06:02:00,72.0,70.0,29.45,SSW,211,2.0,-999.0,94,-99.99,,,-99.99,,2013-06-28 10:02:00,
2013-06-28 06:12:00,72.0,70.0,29.45,SSW,195,1.0,-999.0,94,-99.99,,,-99.99,,2013-06-28 10:12:00,
2013-06-28 06:22:00,72.0,70.0,29.46,WSW,254,2.0,-999.0,95,-99.99,,,-99.99,,2013-06-28 10:22:00,
2013-06-28 06:33:00,72.0,70.0,29.46,WSW,254,2.0,-999.0,95,-99.99,,,-99.99,,2013-06-28 10:33:00,
2013-06-28 06:42:00,72.0,70.0,29.45,SSW,197,2.0,-999.0,95,-99.99,,,-99.99,,2013-06-28 10:42:00,
2013-06-28 06:52:00,73.0,71.0,29.45,SW,231,3.0,-999.0,95,-99.99,,,-99.99,,2013-06-28 10:52:00,
2013-06-28 07:11:00,73.0,71.0,29.46,SW,224,2.0,-999.0,95,-99.99,,,-99.99,,2013-06-28 11:11:00,
2013-06-28 07:22:00,73.0,71.0,29.46,SW,229,3.0,-999.0,95,-99.99,,,-99.99,,2013-06-28 11:22:00,
2013-06-28 07:34:00,73.0,71.0,29.46,WSW,251,3.0,-999.0,94,-99.99,,,-99.99,,2013-06-28 11:34:00,
2013-06-28 07:43:00,73.0,71.0,29.46,WSW,251,3.0,-999.0,94,-99.99,,,-99.99,,2013-06-28 11:43:00,
2013-06-28 07:53:00,74.0,72.0,29.46,SW,236,2.0,-999.0,94,-99.99,,,-99.99,,2013-06-28 11:53:00,
2013-06-28 08:02:00,75.0,73.0,29.46,SSW,207,3.0,-999.0,93,-99.99,,,-99.99,,2013-06-28 12:02:00,
2013-06-28 08:12:00,75.0,73.0,29.46,SSW,207,3.0,-999.0,93,-99.99,,,-99.99,,2013-06-28 12:12:00,
2013-06-28 08:22:00,75.0,72.0,29.46,SSE,159,2.0,-999.0,91,-99.99,,,-99.99,,2013-06-28 12:22:00,
2013-06-28 08:34:00,76.0,73.0,29.45,SW,225,2.0,-999.0,90,-99.99,,,-99.99,,2013-06-28 12:34:00,
2013-06-28 08:43:00,76.0,73.0,29.45,SW,225,2.0,-999.0,90,-99.99,,,-99.99,,2013-06-28 12:43:00,
2013-06-28 08:52:00,77.0,73.0,29.45,WSW,256,1.0,-999.0,88,-99.99,,,-99.99,,2013-06-28 12:52:00,
2013-06-28 09:01:00,77.0,72.0,29.44,SW,222,2.0,-999.0,85,-99.99,,,-99.99,,2013-06-28 13:01:00,
2013-06-28 09:11:00,77.0,72.0,29.44,SW,222,2.0,-999.0,85,-99.99,,,-99.99,,2013-06-28 13:11:00,
2013-06-28 09:33:00,78.0,72.0,29.44,WSW,247,2.0,-999.0,83,-99.99,,,-99.99,,2013-06-28 13:33:00,
2013-06-28 09:43:00,79.0,72.0,29.43,SSW,196,2.0,-999.0,79,-99.99,,,-99.99,,2013-06-28 13:43:00,
2013-06-28 09:53:00,78.0,71.0,29.43,SSW,209,2.0,-999.0,80,-99.99,,,-99.99,,2013-06-28 13:53:00,
2013-06-28 10:02:00,78.0,71.0,29.43,SSW,209,2.0,-999.0,80,-99.99,,,-99.99,,2013-06-28 14:02:00,
2013-06-28 10:12:00,80.0,72.0,29.42,SSW,203,3.0,-999.0,77,-99.99,,,-99.99,,2013-06-28 14:12:00,
2013-06-28 10:44:00,81.0,72.0,29.42,West,277,3.0,-999.0,74,-99.99,,,-99.99,,2013-06-28 14:44:00,
2013-06-28 10:53:00,82.0,72.0,29.42,West,259,3.0,-999.0,73,-99.99,,,-99.99,,2013-06-28 14:53:00,
2013-06-28 11:02:00,82.0,72.0,29.42,West,259,3.0,-999.0,73,-99.99,,,-99.99,,2013-06-28 15:02:00,
2013-06-28 11:11:00,83.0,72.0,29.42,SSW,210,2.0,-999.0,70,-99.99,,,-99.99,,2013-06-28 15:11:00,
2013-06-28 11:24:00,83.0,72.0,29.43,West,281,3.0,-999.0,69,-99.99,,,-99.99,,2013-06-28 15:24:00,
2013-06-28 11:34:00,83.0,72.0,29.43,West,281,3.0,-999.0,69,-99.99,,,-99.99,,2013-06-28 15:34:00,
2013-06-28 11:43:00,83.0,71.0,29.43,SW,227,3.0,-999.0,68,-99.99,,,-99.99,,2013-06-28 15:43:00,
2013-06-28 11:52:00,84.0,73.0,29.44,SW,231,3.0,-999.0,69,-99.99,,,-99.99,,2013-06-28 15:52:00,
2013-06-28 12:02:00,84.0,73.0,29.44,SW,231,3.0,-999.0,69,-99.99,,,-99.99,,2013-06-28 16:02:00,
2013-06-28 12:11:00,85.0,72.0,29.44,WSW,255,4.0,-999.0,65,-99.99,,,-99.99,,2013-06-28 16:11:00,
2013-06-28 12:25:00,85.0,73.0,29.44,SSW,201,3.0,-999.0,68,-99.99,,,-99.99,,2013-06-28 16:25:00,
2013-06-28 12:33:00,85.0,73.0,29.44,SSW,201,3.0,-999.0,68,-99.99,,,-99.99,,2013-06-28 16:33:00,
2013-06-28 12:44:00,85.0,71.0,29.44,WSW,249,4.0,-999.0,64,-99.99,,,-99.99,,2013-06-28 16:44:00,
2013-06-28 12:53:00,85.0,71.0,29.44,WSW,249,4.0,-999.0,64,-99.99,,,-99.99,,2013-06-28 16:53:00,
2013-06-28 13:02:00,85.0,71.0,29.44,WSW,249,4.0,-999.0,64,-99.99,,,-99.99,,2013-06-28 17:02:00,
2013-06-28 13:11:00,85.0,73.0,29.44,West,273,2.0,-999.0,68,-99.99,,,-99.99,,2013-06-28 17:11:00,
2013-06-28 13:22:00,85.0,72.0,29.44,SW,230,3.0,-999.0,65,-99.99,,,-99.99,,2013-06-28 17:22:00,
2013-06-28 13:33:00,85.0,73.0,29.44,SSW,200,1.0,-999.0,67,-99.99,,,-99.99,,2013-06-28 17:33:00,
2013-06-28 13:44:00,85.0,73.0,29.44,SSW,200,1.0,-999.0,67,-99.99,,,-99.99,,2013-06-28 17:44:00,
2013-06-28 13:52:00,87.0,72.0,29.43,SSW,202,2.0,-999.0,61,-99.99,,,-99.99,,2013-06-28 17:52:00,
2013-06-28 14:02:00,87.0,72.0,29.43,SSW,202,2.0,-999.0,61,-99.99,,,-99.99,,2013-06-28 18:02:00,
2013-06-28 14:12:00,87.0,72.0,29.42,South,181,2.0,-999.0,61,-99.99,,,-99.99,,2013-06-28 18:12:00,
2013-06-28 14:22:00,88.0,73.0,29.42,SSW,211,2.0,-999.0,61,-99.99,,,-99.99,,2013-06-28 18:22:00,
2013-06-28 14:33:00,88.0,73.0,29.42,SSW,211,2.0,-999.0,61,-99.99,,,-99.99,,2013-06-28 18:33:00,
2013-06-28 14:43:00,88.0,72.0,29.41,SSW,207,3.0,-999.0,59,-99.99,,,-99.99,,2013-06-28 18:43:00,
2013-06-28 14:52:00,88.0,71.0,29.41,NW,304,4.0,-999.0,58,-99.99,,,-99.99,,2013-06-28 18:52:00,
2013-06-28 15:11:00,88.0,71.0,29.41,SSE,166,2.0,-999.0,58,-99.99,,,-99.99,,2013-06-28 19:11:00,
2013-06-28 15:22:00,88.0,71.0,29.41,SSE,166,2.0,-999.0,58,-99.99,,,-99.99,,2013-06-28 19:22:00,
2013-06-28 15:33:00,89.0,73.0,29.41,WNW,290,3.0,-999.0,60,-99.99,,,-99.99,,2013-06-28 19:33:00,
2013-06-28 15:43:00,89.0,71.0,29.41,SSE,153,3.0,-999.0,56,-99.99,,,-99.99,,2013-06-28 19:43:00,
2013-06-28 15:53:00,89.0,71.0,29.41,SSE,153,3.0,-999.0,56,-99.99,,,-99.99,,2013-06-28 19:53:00,
2013-06-28 16:02:00,89.0,71.0,29.39,WSW,238,4.0,-999.0,56,-99.99,,,-99.99,,2013-06-28 20:02:00,
2013-06-28 16:11:00,89.0,71.0,29.39,SW,233,2.0,-999.0,55,-99.99,,,-99.99,,2013-06-28 20:11:00,
2013-06-28 16:33:00,89.0,72.0,29.38,NW,307,2.0,-999.0,57,-99.99,,,-99.99,,2013-06-28 20:33:00,
2013-06-28 16:43:00,90.0,72.0,29.38,SW,215,3.0,-999.0,55,-99.99,,,-99.99,,2013-06-28 20:43:00,
2013-06-28 16:52:00,90.0,72.0,29.38,SW,215,3.0,-999.0,55,-99.99,,,-99.99,,2013-06-28 20:52:00,
2013-06-28 17:02:00,89.0,70.0,29.39,South,191,2.0,-999.0,54,-99.99,,,-99.99,,2013-06-28 21:02:00,
2013-06-28 17:34:00,88.0,71.0,29.39,West,270,3.0,-999.0,57,-99.99,,,-99.99,,2013-06-28 21:34:00,
2013-06-28 17:43:00,87.0,70.0,29.38,SSW,199,2.0,-999.0,58,-99.99,,,-99.99,,2013-06-28 21:43:00,
2013-06-28 17:53:00,87.0,70.0,29.38,SSW,199,2.0,-999.0,58,-99.99,,,-99.99,,2013-06-28 21:53:00,
2013-06-28 18:01:00,86.0,71.0,29.39,SSW,209,1.0,-999.0,61,-99.99,,,-99.99,,2013-06-28 22:01:00,
2013-06-28 18:43:00,82.0,73.0,29.40,SSW,194,2.0,-999.0,75,-99.99,,,-99.99,,2013-06-28 22:43:00,
2013-06-28 18:52:00,82.0,75.0,29.40,WSW,238,2.0,-999.0,79,-99.99,,,-99.99,,2013-06-28 22:52:00,
2013-06-28 19:02:00,82.0,75.0,29.40,WSW,238,2.0,-999.0,79,-99.99,,,-99.99,,2013-06-28 23:02:00,
2013-06-28 19:11:00,80.0,74.0,29.41,WSW,254,2.0,-999.0,82,-99.99,,,-99.99,,2013-06-28 23:11:00,
2013-06-28 19:23:00,80.0,74.0,29.41,WSW,254,2.0,-999.0,82,-99.99,,,-99.99,,2013-06-28 23:23:00,
2013-06-28 19:43:00,77.0,72.0,29.40,SSE,149,1.0,-999.0,86,-99.99,,,-99.99,,2013-06-28 23:43:00,
2013-06-28 19:53:00,76.0,72.0,29.41,SW,232,0.0,-999.0,88,-99.99,,,-99.99,,2013-06-28 23:53:00,
2013-06-28 20:02:00,76.0,72.0,29.41,SW,232,0.0,-999.0,88,-99.99,,,-99.99,,2013-06-29 00:02:00,
2013-06-28 20:12:00,75.0,71.0,29.43,SW,229,2.0,-999.0,88,-99.99,,,-99.99,,2013-06-29 00:12:00,
2013-06-28 20:23:00,74.0,71.0,29.44,SSW,211,2.0,-999.0,90,-99.99,,,-99.99,,2013-06-29 00:23:00,
2013-06-28 20:33:00,74.0,71.0,29.44,SSW,211,2.0,-999.0,90,-99.99,,,-99.99,,2013-06-29 00:33:00,
2013-06-28 20:42:00,74.0,71.0,29.44,SSW,211,2.0,-999.0,90,-99.99,,,-99.99,,2013-06-29 00:42:00,
2013-06-28 20:52:00,74.0,71.0,29.44,SSW,211,2.0,-999.0,90,-99.99,,,-99.99,,2013-06-29 00:52:00,
2013-06-28 21:01:00,74.0,71.0,29.44,SSW,211,2.0,-999.0,90,-99.99,,,-99.99,,2013-06-29 01:01:00,
2013-06-28 21:11:00,73.0,70.0,29.44,SSW,199,3.0,-999.0,90,-99.99,,,-99.99,,2013-06-29 01:11:00,
2013-06-28 21:22:00,73.0,70.0,29.44,SSW,199,3.0,-999.0,90,-99.99,,,-99.99,,2013-06-29 01:22:00,
2013-06-28 21:32:00,73.0,70.0,29.44,SSW,199,3.0,-999.0,90,-99.99,,,-99.99,,2013-06-29 01:32:00,
2013-06-28 21:42:00,73.0,70.0,29.44,SSW,199,3.0,-999.0,90,-99.99,,,-99.99,,2013-06-29 01:42:00,
2013-06-28 21:51:00,73.0,70.0,29.44,SSW,199,3.0,-999.0,90,-99.99,,,-99.99,,2013-06-29 01:51:00,